Starlink 3509

operational
NORAD ID: 51737 Int'l Des: 2022-016 Owner: SPXS Country: US Constellation: starlink
LEOCIRCULAR

Über Starlink 3509

Beschreibung wird geladen...

Live-Position

3D-Globus wird geladen...

Nächste Überflüge

Höhenverlauf

Altitude vs Time

uPlot chart will show altitude changes over time

Zweizeiliger Elementsatz

1 51737U 22016Z 25350.32579802 .00000789 00000-0 67683-4 0 9993
2 51737 53.2185 333.3543 0001262 94.6996 265.4140 15.08839511210979
Epoch: 16. Dez. 2025 • Age: 14 hours

Aktueller Status

Höhe 550.8 km
Geschwindigkeit 7.59 km/s
Subsatellitenpunkt -33.11°S, 113.15°W
Startdatum 21. Feb. 2022
Alter 3.8 years
Typ internet

Technische Details

Klassifizierung Payload
Masse 297.00 kg
Trockenmasse 275.00 kg
Gesamtmasse 297.00 kg
Länge 0.20 m
Durchmesser 2.80 m
Spannweite 9.00 m
Form Box + pan
Hersteller SPXS
Bus-Typ Starlink
Phasenstatus In Orbit
Besitzer/Staat SPXS/US

Große Konstellationen

Loading constellations...